Natchitoches, LA

8:20 PM CDT on August 19, 2017 (GMT -0500)
Natchitoches Regional

Weather History for KIER - October, 2012

Change the Weather History Date:

Friday, October 19, 2012

  Actual Average Record
Temperature  
Mean Temperature 59 °F -  
Max Temperature 77 °F 77 °F 93 °F (2016)
Min Temperature 41 °F 52 °F 28 °F (1948)
Degree Days  
Heating Degree Days 6    
Growing Degree Days 9 (Base 50)    
Moisture  
Dew Point 42 °F    
Average Humidity 64    
Maximum Humidity 99    
Minimum Humidity 21    
Precipitation  
Precipitation 0.00 in - - ()
Sea Level Pressure  
Sea Level Pressure 29.94 in    
Wind  
Wind Speed 3 mph (West)    
Max Wind Speed 17 mph    
Max Gust Speed 25 mph    
Visibility 10 miles    
Events      
Averages and records for this station are not official NWS values.
T = Trace of Precipitation, MM = Missing Value Source: NWS Daily Summary

Daily Weather History Graph

Daily Weather History Graph

Search for Another Location

Airport or City:

Trip Planner

Search our weather history database for the weather conditions in past years. The results will help you decide how hot, cold, wet, or windy it might be!

Date:

Astronomy

Oct. 19, 2012 Rise Set
Actual Time 7:18 AM CDT 6:35 PM CDT
Civil Twilight 6:54 AM CDT 6:59 PM CDT
Nautical Twilight 6:25 AM CDT 7:28 PM CDT
Astronomical Twilight 5:57 AM CDT 7:56 PM CDT
Moon 11:50 AM CDT (10/19) 10:25 PM CDT (10/19)
Length of Visible Light 12h 05m
Length of Day
11h 16m
Waxing Crescent, 24% of the Moon is Illuminated
Oct 19
Waxing Crescent
Oct 21
First Quarter
Oct 29
Full
Nov 6
Last Quarter
Nov 13
New

Hourly Weather History & Observations

Time (CDT) Temp. Windchill Dew Point Humidity Pressure Visibility Wind Dir Wind Speed Gust Speed Precip Events Conditions
1:35 AM 45.1 °F - 44.6 °F 98% 29.96 in 10.0 mi Calm Calm - N/A   Clear
1:55 AM 45.0 °F - 44.6 °F 99% 29.96 in 10.0 mi Calm Calm - N/A   Clear
2:15 AM 45.0 °F - 44.2 °F 97% 29.96 in 10.0 mi Calm Calm - N/A   Clear
2:35 AM 44.2 °F - 43.2 °F 96% 29.96 in 10.0 mi Calm Calm - N/A   Clear
2:55 AM 44.4 °F - 43.7 °F 97% 29.96 in 10.0 mi Calm Calm - N/A   Clear
3:15 AM 44.2 °F - 43.3 °F 97% 29.95 in 10.0 mi Calm Calm - N/A   Clear
3:35 AM 43.7 °F - 42.8 °F 97% 29.95 in 10.0 mi Calm Calm - N/A   Clear
3:55 AM 43.0 °F - 42.1 °F 97% 29.94 in 10.0 mi Calm Calm - N/A   Clear
4:15 AM 42.8 °F - 42.1 °F 97% 29.94 in 10.0 mi Calm Calm - N/A   Clear
4:35 AM 42.1 °F - 41.4 °F 97% 29.93 in 10.0 mi Calm Calm - N/A   Clear
4:55 AM 42.6 °F - 41.4 °F 95% 29.93 in 10.0 mi Calm Calm - N/A   Clear
5:15 AM 41.5 °F - 40.5 °F 96% 29.94 in 10.0 mi Calm Calm - N/A   Clear
5:35 AM 42.1 °F - 41.0 °F 96% 29.94 in 10.0 mi Calm Calm - N/A   Clear
5:55 AM 42.6 °F - 41.0 °F 94% 29.94 in 10.0 mi Calm Calm - N/A   Clear
6:15 AM 41.9 °F - 40.6 °F 95% 29.94 in 10.0 mi Calm Calm - N/A   Clear
6:35 AM 41.5 °F - 41.0 °F 98% 29.95 in 10.0 mi Calm Calm - N/A   Clear
6:55 AM 41.9 °F 39.0 °F 40.5 °F 95% 29.95 in 10.0 mi SSE 4.6 mph - N/A   Clear
7:15 AM 41.4 °F 39.4 °F 40.3 °F 96% 29.95 in 10.0 mi SSE 3.5 mph - N/A   Clear
7:35 AM 42.1 °F 40.2 °F 41.0 °F 96% 29.95 in 10.0 mi SSE 3.5 mph - N/A   Clear
7:55 AM 44.6 °F 43.1 °F 42.3 °F 91% 29.95 in 10.0 mi SSE 3.5 mph - N/A   Clear
8:15 AM 48.7 °F - 45.0 °F 87% 29.96 in 10.0 mi Calm Calm - N/A   Clear
8:35 AM 54.9 °F - 46.4 °F 73% 29.96 in 10.0 mi North 3.5 mph - N/A   Clear
8:55 AM 59.4 °F - 46.9 °F 63% 29.98 in 10.0 mi NW 4.6 mph - N/A   Clear
9:15 AM 60.6 °F - 45.7 °F 58% 29.98 in 10.0 mi WNW 8.1 mph - N/A   Clear
9:35 AM 62.8 °F - 43.3 °F 49% 29.98 in 10.0 mi WNW 10.4 mph - N/A   Clear
9:55 AM 64.6 °F - 41.2 °F 42% 29.98 in 10.0 mi West 12.7 mph - N/A   Clear
10:15 AM 66.2 °F - 42.3 °F 42% 29.99 in 10.0 mi WNW 11.5 mph 16.1 mph N/A   Clear
10:35 AM 67.8 °F - 41.9 °F 39% 29.99 in 10.0 mi WNW 8.1 mph - N/A   Clear
10:55 AM 69.8 °F - 39.7 °F 33% 29.98 in 10.0 mi WNW 8.1 mph - N/A   Clear
11:15 AM 71.6 °F - 37.6 °F 29% 29.98 in 10.0 mi West 10.4 mph - N/A   Clear
11:35 AM 71.6 °F - 38.7 °F 30% 29.98 in 10.0 mi WNW 8.1 mph - N/A   Clear
11:55 AM 73.2 °F - 36.1 °F 26% 29.98 in 10.0 mi WNW 11.5 mph 18.4 mph N/A   Clear
12:15 PM 73.9 °F - 33.1 °F 22% 29.98 in 7.0 mi NW 12.7 mph 20.7 mph N/A   Clear
12:35 PM 75.0 °F - 34.0 °F 22% 29.97 in 10.0 mi West 13.8 mph 25.3 mph N/A   Clear
12:55 PM 75.2 °F - 32.5 °F 21% 29.96 in 10.0 mi WNW 17.3 mph - N/A   Clear
1:15 PM 75.9 °F - 33.8 °F 22% 29.94 in 10.0 mi NW 12.7 mph 20.7 mph N/A   Clear
1:35 PM 76.6 °F - 35.1 °F 22% 29.93 in 10.0 mi West 11.5 mph 20.7 mph N/A   Clear
1:55 PM 76.1 °F - 33.8 °F 21% 29.93 in 10.0 mi West 13.8 mph 20.7 mph N/A   Clear
2:15 PM 75.7 °F - 34.9 °F 23% 29.92 in 10.0 mi West 12.7 mph 19.6 mph N/A   Clear
2:35 PM 76.3 °F - 35.8 °F 23% 29.91 in 10.0 mi West 9.2 mph 19.6 mph N/A   Clear
2:55 PM 77.0 °F - 35.6 °F 22% 29.91 in 10.0 mi WNW 10.4 mph 19.6 mph N/A   Clear
3:15 PM 77.0 °F - 36.1 °F 23% 29.90 in 10.0 mi West 11.5 mph 17.3 mph N/A   Clear
3:35 PM 77.0 °F - 37.4 °F 24% 29.90 in 10.0 mi West 10.4 mph 16.1 mph N/A   Clear
3:55 PM 77.2 °F - 37.9 °F 24% 29.90 in 10.0 mi West 10.4 mph - N/A   Clear
4:15 PM 76.8 °F - 37.8 °F 24% 29.90 in 10.0 mi West 9.2 mph - N/A   Clear
4:35 PM 76.1 °F - 38.1 °F 25% 29.89 in 10.0 mi West 10.4 mph - N/A   Clear
4:55 PM 76.1 °F - 37.2 °F 24% 29.89 in 10.0 mi West 6.9 mph - N/A   Clear
5:15 PM 75.2 °F - 37.4 °F 25% 29.89 in 10.0 mi West 8.1 mph - N/A   Clear
5:35 PM 74.5 °F - 38.3 °F 27% 29.89 in 10.0 mi West 5.8 mph - N/A   Clear
5:55 PM 72.7 °F - 39.0 °F 29% 29.89 in 10.0 mi West 4.6 mph - N/A   Clear
6:15 PM 70.0 °F - 42.1 °F 36% 29.89 in 10.0 mi West 3.5 mph - N/A   Clear
6:35 PM 62.8 °F - 48.2 °F 59% 29.89 in 10.0 mi Calm Calm - N/A   Clear
6:55 PM 59.0 °F - 46.8 °F 64% 29.89 in 10.0 mi Calm Calm - N/A   Clear
7:15 PM 56.8 °F - 47.3 °F 70% 29.90 in 10.0 mi Calm Calm - N/A   Clear
7:35 PM 55.8 °F - 47.8 °F 75% 29.91 in 10.0 mi Calm Calm - N/A   Clear
7:55 PM 54.1 °F - 46.9 °F 77% 29.91 in 10.0 mi Calm Calm - N/A   Clear
8:15 PM 53.1 °F - 47.8 °F 82% 29.91 in 10.0 mi Calm Calm - N/A   Clear
8:35 PM 52.3 °F - 47.8 °F 85% 29.92 in 10.0 mi Calm Calm - N/A   Clear
8:55 PM 51.3 °F - 47.5 °F 87% 29.92 in 10.0 mi Calm Calm - N/A   Clear
9:15 PM 51.1 °F - 48.0 °F 89% 29.92 in 10.0 mi Calm Calm - N/A   Clear
9:35 PM 51.3 °F - 47.3 °F 86% 29.92 in 10.0 mi Calm Calm - N/A   Clear
9:55 PM 49.3 °F - 46.2 °F 89% 29.92 in 10.0 mi Calm Calm - N/A   Clear
10:15 PM 50.2 °F - 46.8 °F 88% 29.93 in 10.0 mi Calm Calm - N/A   Clear
10:35 PM 49.1 °F - 46.6 °F 91% 29.93 in 10.0 mi Calm Calm - N/A   Clear
10:55 PM 48.7 °F - 46.4 °F 92% 29.93 in 10.0 mi Calm Calm - N/A   Clear
11:15 PM 48.7 °F - 45.7 °F 89% 29.93 in 10.0 mi Calm Calm - N/A   Clear
11:35 PM 49.5 °F - 45.5 °F 86% 29.93 in 10.0 mi Calm Calm - N/A   Clear
11:55 PM 48.9 °F - 44.8 °F 86% 29.93 in 10.0 mi Calm Calm - N/A   Clear